sat.trackr.live / text

‹ back to catalog

STARLINK-35493

NORAD 65928 · 2025-225U

PAYLOAD ACTIVE UNKNOWN

§ Identity

Operator
Country
US
Launch date
2025-10-08
Launch site
AFWTR
Launch vehicle
Mass (kg)
RCS (m²)

Purposes: comms

External: N2YO · Heavens-Above · Gunter

§ Orbital elements

Epoch: 2026-09-20T22:16:00.103008Z

Period
93.85 min
Inclination
53.1601°
Eccentricity
0.0001162
Mean motion
15.34401833 rev/d
Perigee alt
461.9 km
Apogee alt
463.5 km
Semi-major
6,840.8 km
B*
5.8861e-4
RAAN
335.7175°
Arg perigee
75.8884°
Mean anomaly
284.2248°
Rev number
5,434

§ Raw data

STARLINK-354931 65928U 25225U   26263.92777897  .00019564  00000+0  58861-3 0  99962 65928  53.1601 335.7175 0001162  75.8884 284.2248 15.34401833 54347

JSON: /api/v1/satellites/65928 · /tle

For live sub-satellite position, see the globe view (requires WebGL).

§ Visibility from observer

Set your observer location to see the next 7 days of passes ≥ 10°. The values pass through the URL so the page stays shareable.

No JS? Fill the form by hand. The geolocation button needs JavaScript.